Location: Brunembert
(50.7122°N, 1.8935°E)
Time: 10:21:57
(UTC+00:00)

Cosmos 2263 Rocket - Pass Details

Date: 22 April 2021
Orbit: 824 x 848 km, 71.0° (Epoch: 16 May)

Event Time Altitude Azimuth Distance (km) Brightness Sun altitude
Exits shadow 22:16:15 58° 168° (SSE) 960 2.1 -23.5°
Maximum altitude 22:17:11 69° 115° (ESE) 881 2.0 -23.5°
Drops below altitude 10° 22:22:43 10° 33° (NNE) 2,439 5.0 -23.9°
Sets 22:25:11 0° 31° (NNE) 3,379 5.8 -24.1°
